AAL1103 KDFW-KBNA

Flight info

Callsign AAL1103
Flight time 1h 20m
Altitude 35000
Route TRYTN4 LOOSE WASKO Q34 MEMFS CHSNE3
Aircraft B738/M-SDE2E3FGHIRWXY/LB1

Departure

Time 2026-05-05 02:10
Airport Dallas Fort Worth International Airport (KDFW)

Arrival

Time 2026-05-05 03:31
Airport Nashville International Airport (KBNA)
Time Latitude Longitude Altitude Speed Heading
2026-05-05 01:38 32.89475 -97.03739 586 ft 0 kts 355°
2026-05-05 01:57 32.89471 -97.03739 586 ft 3 kts 355°
2026-05-05 01:57 32.89447 -97.03737 586 ft 2 kts 355°
2026-05-05 01:58 32.89428 -97.03741 586 ft 4 kts 61°
2026-05-05 01:58 32.89422 -97.03770 586 ft 3 kts 90°
2026-05-05 01:58 32.89421 -97.03753 586 ft 4 kts 91°
2026-05-05 01:58 32.89421 -97.03738 586 ft 0 kts 91°
2026-05-05 02:00 32.89421 -97.03734 586 ft 2 kts 91°
2026-05-05 02:01 32.89420 -97.03713 586 ft 6 kts 92°
2026-05-05 02:01 32.89419 -97.03659 586 ft 7 kts 91°
2026-05-05 02:01 32.89418 -97.03576 586 ft 10 kts 91°
2026-05-05 02:01 32.89417 -97.03489 586 ft 11 kts 91°
2026-05-05 02:02 32.89417 -97.03403 586 ft 10 kts 90°
2026-05-05 02:02 32.89415 -97.03319 584 ft 10 kts 92°
2026-05-05 02:02 32.89398 -97.03260 581 ft 13 kts 105°
2026-05-05 02:02 32.89452 -97.03194 580 ft 14 kts 360°
2026-05-05 02:03 32.89546 -97.03195 579 ft 13 kts 360°
2026-05-05 02:03 32.89642 -97.03194 579 ft 15 kts
2026-05-05 02:03 32.89752 -97.03193 578 ft 16 kts
2026-05-05 02:03 32.89865 -97.03193 576 ft 16 kts 360°
2026-05-05 02:04 32.89972 -97.03192 577 ft 15 kts
2026-05-05 02:04 32.90075 -97.03190 579 ft 15 kts 360°
2026-05-05 02:04 32.90175 -97.03186 572 ft 15 kts
2026-05-05 02:04 32.90277 -97.03183 574 ft 14 kts 358°
2026-05-05 02:05 32.90374 -97.03189 575 ft 14 kts 358°
2026-05-05 02:05 32.90473 -97.03190 573 ft 16 kts 360°
2026-05-05 02:05 32.90598 -97.03189 572 ft 19 kts
2026-05-05 02:05 32.90727 -97.03189 576 ft 18 kts 360°
2026-05-05 02:06 32.90852 -97.03189 582 ft 18 kts
2026-05-05 02:06 32.90972 -97.03188 578 ft 17 kts
2026-05-05 02:06 32.91088 -97.03186 579 ft 16 kts
2026-05-05 02:06 32.91200 -97.03185 579 ft 16 kts
2026-05-05 02:07 32.91307 -97.03184 579 ft 15 kts
2026-05-05 02:07 32.91410 -97.03184 580 ft 15 kts
2026-05-05 02:07 32.91492 -97.03184 577 ft 6 kts
2026-05-05 02:07 32.91544 -97.03173 574 ft 9 kts 31°
2026-05-05 02:08 32.91560 -97.03107 576 ft 9 kts 91°
2026-05-05 02:08 32.91558 -97.03039 575 ft 7 kts 92°
2026-05-05 02:08 32.91556 -97.03003 575 ft 4 kts 93°
2026-05-05 02:08 32.91537 -97.02987 582 ft 4 kts 175°
2026-05-05 02:09 32.91530 -97.02987 576 ft 0 kts 182°
2026-05-05 02:09 32.91303 -97.02990 574 ft 69 kts 180°
2026-05-05 02:09 32.90596 -97.02994 575 ft 132 kts 180°
2026-05-05 02:10 32.89518 -97.03015 788 ft 166 kts 182°
2026-05-05 02:10 32.88343 -97.03014 1595 ft 171 kts 180°
2026-05-05 02:10 32.87153 -97.02968 2373 ft 175 kts 182°
2026-05-05 02:10 32.85859 -97.02931 2596 ft 197 kts 182°
2026-05-05 02:11 32.84458 -97.02632 3037 ft 215 kts 166°
2026-05-05 02:11 32.83002 -97.01924 3314 ft 240 kts 163°
2026-05-05 02:11 32.81422 -97.01126 3944 ft 252 kts 163°
2026-05-05 02:11 32.79779 -97.00296 4653 ft 262 kts 160°
2026-05-05 02:12 32.78297 -96.98947 5381 ft 282 kts 133°
2026-05-05 02:12 32.76638 -96.94519 6789 ft 303 kts 108°
2026-05-05 02:12 32.76484 -96.91998 7494 ft 311 kts 87°
2026-05-05 02:13 32.76625 -96.89427 8281 ft 314 kts 87°
2026-05-05 02:13 32.76740 -96.86810 8970 ft 321 kts 88°
2026-05-05 02:13 32.76841 -96.84138 9681 ft 326 kts 87°
2026-05-05 02:13 32.77167 -96.81470 10394 ft 330 kts 73°
2026-05-05 02:14 32.77838 -96.78777 10646 ft 352 kts 70°
2026-05-05 02:14 32.78623 -96.75926 10828 ft 374 kts 70°
2026-05-05 02:14 32.79455 -96.72923 11135 ft 390 kts 70°
2026-05-05 02:14 32.80294 -96.69834 11727 ft 395 kts 70°
2026-05-05 02:15 32.81123 -96.66719 12476 ft 396 kts 70°
2026-05-05 02:15 32.81943 -96.63585 13170 ft 399 kts 71°
2026-05-05 02:15 32.82765 -96.60418 13787 ft 403 kts 71°
2026-05-05 02:15 32.83591 -96.57216 14346 ft 407 kts 71°
2026-05-05 02:16 32.84423 -96.53986 14960 ft 410 kts 70°
2026-05-05 02:16 32.85259 -96.50731 15564 ft 413 kts 70°
2026-05-05 02:16 32.86102 -96.47451 16154 ft 416 kts 70°
2026-05-05 02:16 32.86950 -96.44148 16771 ft 419 kts 70°
2026-05-05 02:17 32.87803 -96.40822 17338 ft 423 kts 70°
2026-05-05 02:17 32.88665 -96.37460 17885 ft 427 kts 70°
2026-05-05 02:17 32.89531 -96.34070 18389 ft 431 kts 70°
2026-05-05 02:17 32.90482 -96.30674 18803 ft 434 kts 66°
2026-05-05 02:18 32.91559 -96.27300 19232 ft 438 kts 64°
2026-05-05 02:18 32.92690 -96.23915 19670 ft 442 kts 63°
2026-05-05 02:18 32.93839 -96.20497 20103 ft 447 kts 63°
2026-05-05 02:18 32.94988 -96.17044 20519 ft 451 kts 63°
2026-05-05 02:19 32.96137 -96.13550 20937 ft 456 kts 63°
2026-05-05 02:19 32.97287 -96.10014 21350 ft 460 kts 63°
2026-05-05 02:19 32.98440 -96.06447 21787 ft 464 kts 63°
2026-05-05 02:19 32.99600 -96.02848 22204 ft 467 kts 63°
2026-05-05 02:20 33.00767 -95.99221 22593 ft 471 kts 63°
2026-05-05 02:20 33.01943 -95.95564 22999 ft 475 kts 63°
2026-05-05 02:20 33.03113 -95.91925 23368 ft 478 kts 63°
2026-05-05 02:20 33.04306 -95.88210 23683 ft 482 kts 63°
2026-05-05 02:21 33.05506 -95.84470 24015 ft 485 kts 63°
2026-05-05 02:21 33.06712 -95.80707 24336 ft 487 kts 63°
2026-05-05 02:21 33.07927 -95.76919 24647 ft 490 kts 62°
2026-05-05 02:21 33.09148 -95.73111 24957 ft 493 kts 62°
2026-05-05 02:22 33.10376 -95.69282 25272 ft 496 kts 62°
2026-05-05 02:22 33.11609 -95.65429 25587 ft 498 kts 62°
2026-05-05 02:22 33.12848 -95.61554 25918 ft 501 kts 62°
2026-05-05 02:22 33.14093 -95.57656 26206 ft 504 kts 62°
2026-05-05 02:23 33.15342 -95.53737 26493 ft 507 kts 62°
2026-05-05 02:23 33.16596 -95.49798 26778 ft 509 kts 62°
2026-05-05 02:23 33.17857 -95.45834 27042 ft 512 kts 62°
2026-05-05 02:23 33.19122 -95.41849 27302 ft 515 kts 62°
2026-05-05 02:24 33.20393 -95.37844 27570 ft 517 kts 62°
2026-05-05 02:24 33.21667 -95.33819 27831 ft 519 kts 62°
2026-05-05 02:24 33.22945 -95.29778 28142 ft 521 kts 62°
2026-05-05 02:24 33.24223 -95.25730 28438 ft 522 kts 62°
2026-05-05 02:25 33.25507 -95.21662 28673 ft 525 kts 62°
2026-05-05 02:25 33.26796 -95.17571 28896 ft 528 kts 61°
2026-05-05 02:25 33.28092 -95.13455 29125 ft 530 kts 61°
2026-05-05 02:25 33.29390 -95.09327 29371 ft 532 kts 61°
2026-05-05 02:26 33.30691 -95.05179 29597 ft 534 kts 61°
2026-05-05 02:26 33.31994 -95.01019 29884 ft 535 kts 61°
2026-05-05 02:26 33.33294 -94.96860 30186 ft 534 kts 61°
2026-05-05 02:26 33.34589 -94.92707 30562 ft 532 kts 61°
2026-05-05 02:27 33.35877 -94.88573 30921 ft 530 kts 60°
2026-05-05 02:27 33.37164 -94.84443 31179 ft 530 kts 60°
2026-05-05 02:27 33.38455 -94.80300 31399 ft 532 kts 60°
2026-05-05 02:27 33.39747 -94.76151 31657 ft 532 kts 60°
2026-05-05 02:28 33.41019 -94.72057 31964 ft 532 kts 60°
2026-05-05 02:28 33.42302 -94.67914 32262 ft 531 kts 60°
2026-05-05 02:28 33.43603 -94.63712 32539 ft 531 kts 60°
2026-05-05 02:28 33.44869 -94.59620 32783 ft 532 kts 60°
2026-05-05 02:29 33.46151 -94.55468 33055 ft 531 kts 59°
2026-05-05 02:29 33.47426 -94.51328 33413 ft 529 kts 59°
2026-05-05 02:29 33.48698 -94.47197 33709 ft 529 kts 59°
2026-05-05 02:29 33.49970 -94.43063 33917 ft 529 kts 59°
2026-05-05 02:30 33.51244 -94.38921 34104 ft 530 kts 59°
2026-05-05 02:30 33.52518 -94.34770 34315 ft 531 kts 59°
2026-05-05 02:30 33.53789 -94.30618 34556 ft 530 kts 59°
2026-05-05 02:30 33.55056 -94.26475 34774 ft 530 kts 59°
2026-05-05 02:31 33.56316 -94.22316 34975 ft 531 kts 60°
2026-05-05 02:31 33.57560 -94.18152 35214 ft 531 kts 60°
2026-05-05 02:31 33.58794 -94.13986 35498 ft 529 kts 60°
2026-05-05 02:31 33.60021 -94.09835 35746 ft 528 kts 60°
2026-05-05 02:32 33.61246 -94.05689 35973 ft 527 kts 60°
2026-05-05 02:32 33.62469 -94.01554 36255 ft 526 kts 59°
2026-05-05 02:32 33.63690 -93.97426 36479 ft 525 kts 59°
2026-05-05 02:32 33.64913 -93.93297 36666 ft 525 kts 59°
2026-05-05 02:33 33.66135 -93.89166 36814 ft 526 kts 59°
2026-05-05 02:33 33.68591 -93.80856 36877 ft 529 kts 60°
2026-05-05 02:34 33.71033 -93.72537 36864 ft 527 kts 59°
2026-05-05 02:34 33.73454 -93.64262 36861 ft 523 kts 59°
2026-05-05 02:35 33.75859 -93.56033 36859 ft 521 kts 59°
2026-05-05 02:35 33.78250 -93.47836 36868 ft 519 kts 59°
2026-05-05 02:36 33.80627 -93.39662 36876 ft 518 kts 59°
2026-05-05 02:36 33.82999 -93.31486 36880 ft 518 kts 59°
2026-05-05 02:37 33.85372 -93.23281 36879 ft 520 kts 60°
2026-05-05 02:37 33.87732 -93.15097 36883 ft 522 kts 60°
2026-05-05 02:38 33.90136 -93.06837 36879 ft 521 kts 57°
2026-05-05 02:38 33.93022 -92.98912 36923 ft 516 kts 52°
2026-05-05 02:39 33.96087 -92.91078 36887 ft 518 kts 53°
2026-05-05 02:39 33.99082 -92.83152 36880 ft 521 kts 54°
2026-05-05 02:40 34.02028 -92.75169 36883 ft 521 kts 54°
2026-05-05 02:40 34.04970 -92.67185 36886 ft 521 kts 54°
2026-05-05 02:41 34.07931 -92.59234 36883 ft 519 kts 53°
2026-05-05 02:41 34.10912 -92.51326 36877 ft 517 kts 53°
2026-05-05 02:42 34.13851 -92.43416 36877 ft 516 kts 54°
2026-05-05 02:42 34.16774 -92.35528 36883 ft 514 kts 53°
2026-05-05 02:43 34.19688 -92.27669 36946 ft 512 kts 53°
2026-05-05 02:43 34.22589 -92.19810 36890 ft 512 kts 53°
2026-05-05 02:44 34.25459 -92.12006 36895 ft 511 kts 53°
2026-05-05 02:44 34.28340 -92.04158 36896 ft 510 kts 53°
2026-05-05 02:45 34.31211 -91.96324 36893 ft 509 kts 53°
2026-05-05 02:45 34.34077 -91.88487 36911 ft 509 kts 53°
2026-05-05 02:46 34.36938 -91.80647 36901 ft 509 kts 54°
2026-05-05 02:46 34.39796 -91.72792 36894 ft 510 kts 54°
2026-05-05 02:47 34.42648 -91.64934 36900 ft 510 kts 54°
2026-05-05 02:47 34.45495 -91.57070 36886 ft 510 kts 54°
2026-05-05 02:48 34.48342 -91.49188 36926 ft 511 kts 54°
2026-05-05 02:48 34.51192 -91.41282 36898 ft 512 kts 54°
2026-05-05 02:49 34.54032 -91.33374 36892 ft 511 kts 54°
2026-05-05 02:49 34.56867 -91.25464 36895 ft 511 kts 54°
2026-05-05 02:50 34.59693 -91.17559 36900 ft 510 kts 54°
2026-05-05 02:50 34.62037 -91.10991 36920 ft 510 kts 53°
2026-05-05 02:51 34.64851 -91.03087 36907 ft 509 kts 54°
2026-05-05 02:51 34.67653 -90.95193 36900 ft 508 kts 54°
2026-05-05 02:52 34.70445 -90.87311 36901 ft 507 kts 54°
2026-05-05 02:52 34.73227 -90.79437 36910 ft 506 kts 54°
2026-05-05 02:53 34.76005 -90.71562 36907 ft 507 kts 53°
2026-05-05 02:53 34.78771 -90.63691 36904 ft 505 kts 53°
2026-05-05 02:54 34.81524 -90.55837 36905 ft 504 kts 53°
2026-05-05 02:54 34.84266 -90.48000 36907 ft 502 kts 53°
2026-05-05 02:55 34.86995 -90.40182 36909 ft 501 kts 53°
2026-05-05 02:55 34.89714 -90.32372 36910 ft 501 kts 53°
2026-05-05 02:56 34.92427 -90.24560 36893 ft 500 kts 53°
2026-05-05 02:56 34.95132 -90.16752 36891 ft 500 kts 53°
2026-05-05 02:57 34.97833 -90.08937 36896 ft 500 kts 53°
2026-05-05 02:57 35.00532 -90.01113 36910 ft 502 kts 53°
2026-05-05 02:58 35.03220 -89.93242 36926 ft 504 kts 53°
2026-05-05 02:58 35.05874 -89.85321 36927 ft 505 kts 53°
2026-05-05 02:59 35.08524 -89.77376 36921 ft 505 kts 53°
2026-05-05 02:59 35.11177 -89.69424 36923 ft 506 kts 53°
2026-05-05 03:00 35.13829 -89.61468 36914 ft 506 kts 53°
2026-05-05 03:00 35.16458 -89.53560 36924 ft 506 kts 54°
2026-05-05 03:01 35.19102 -89.45588 36930 ft 506 kts 54°
2026-05-05 03:01 35.21740 -89.37611 36925 ft 506 kts 54°
2026-05-05 03:02 35.24372 -89.29629 36925 ft 506 kts 54°
2026-05-05 03:02 35.27003 -89.21638 36936 ft 507 kts 54°
2026-05-05 03:03 35.29630 -89.13629 36914 ft 507 kts 54°
2026-05-05 03:03 35.32252 -89.05617 36919 ft 507 kts 54°
2026-05-05 03:04 35.34866 -88.97605 36925 ft 506 kts 54°
2026-05-05 03:04 35.37479 -88.89584 36596 ft 511 kts 54°
2026-05-05 03:04 35.38799 -88.85534 36077 ft 510 kts 55°
2026-05-05 03:05 35.40105 -88.81501 35530 ft 509 kts 57°
2026-05-05 03:05 35.41411 -88.77465 34912 ft 509 kts 58°
2026-05-05 03:05 35.42716 -88.73428 34297 ft 510 kts 58°
2026-05-05 03:05 35.44008 -88.69434 33604 ft 511 kts 59°
2026-05-05 03:06 35.45316 -88.65383 32897 ft 511 kts 60°
2026-05-05 03:06 35.46604 -88.61367 32540 ft 502 kts 60°
2026-05-05 03:06 35.47886 -88.57371 31799 ft 504 kts 61°
2026-05-05 03:06 35.49169 -88.53374 31118 ft 503 kts 62°
2026-05-05 03:07 35.50453 -88.49378 30420 ft 503 kts 63°
2026-05-05 03:07 35.51732 -88.45385 29625 ft 503 kts 64°
2026-05-05 03:07 35.53004 -88.41406 28989 ft 497 kts 64°
2026-05-05 03:07 35.54256 -88.37482 28411 ft 490 kts 64°
2026-05-05 03:08 35.55488 -88.33614 27881 ft 483 kts 64°
2026-05-05 03:08 35.56706 -88.29794 27336 ft 477 kts 65°
2026-05-05 03:08 35.57908 -88.26020 26802 ft 472 kts 65°
2026-05-05 03:08 35.59097 -88.22285 26269 ft 467 kts 65°
2026-05-05 03:09 35.60272 -88.18592 25745 ft 462 kts 65°
2026-05-05 03:09 35.61435 -88.14926 25226 ft 458 kts 65°
2026-05-05 03:09 35.62584 -88.11297 24765 ft 453 kts 65°
2026-05-05 03:09 35.63717 -88.07711 24299 ft 449 kts 66°
2026-05-05 03:10 35.64846 -88.04141 23781 ft 447 kts 66°
2026-05-05 03:10 35.65974 -88.00575 23202 ft 447 kts 66°
2026-05-05 03:10 35.67095 -87.97028 22620 ft 443 kts 66°
2026-05-05 03:10 35.68204 -87.93508 22078 ft 439 kts 66°
2026-05-05 03:11 35.69303 -87.90022 21550 ft 435 kts 66°
2026-05-05 03:11 35.70376 -87.86613 21038 ft 431 kts 66°
2026-05-05 03:11 35.71453 -87.83188 20527 ft 427 kts 66°
2026-05-05 03:11 35.72518 -87.79796 20028 ft 423 kts 67°
2026-05-05 03:12 35.73574 -87.76432 19533 ft 420 kts 67°
2026-05-05 03:12 35.74618 -87.73104 19211 ft 412 kts 67°
2026-05-05 03:12 35.75630 -87.69866 19046 ft 400 kts 67°
2026-05-05 03:12 35.76616 -87.66708 18797 ft 391 kts 67°
2026-05-05 03:13 35.77584 -87.63601 18454 ft 386 kts 68°
2026-05-05 03:13 35.78538 -87.60531 18118 ft 381 kts 68°
2026-05-05 03:13 35.79481 -87.57498 17747 ft 378 kts 68°
2026-05-05 03:13 35.80417 -87.54485 17405 ft 376 kts 68°
2026-05-05 03:14 35.81348 -87.51486 17067 ft 374 kts 68°
2026-05-05 03:14 35.82272 -87.48503 16742 ft 372 kts 68°
2026-05-05 03:14 35.83215 -87.45545 16410 ft 370 kts 66°
2026-05-05 03:14 35.84224 -87.42639 16092 ft 368 kts 65°
2026-05-05 03:15 35.85254 -87.39757 15775 ft 367 kts 64°
2026-05-05 03:15 35.86285 -87.36882 15458 ft 366 kts 65°
2026-05-05 03:15 35.87309 -87.34011 15145 ft 365 kts 65°
2026-05-05 03:15 35.88312 -87.31183 14866 ft 364 kts 65°
2026-05-05 03:16 35.89334 -87.28286 14557 ft 363 kts 65°
2026-05-05 03:16 35.90325 -87.25468 14256 ft 363 kts 65°
2026-05-05 03:16 35.91328 -87.22607 13948 ft 363 kts 65°
2026-05-05 03:16 35.92330 -87.19746 13613 ft 364 kts 65°
2026-05-05 03:17 35.93333 -87.16879 13265 ft 364 kts 65°
2026-05-05 03:17 35.94334 -87.14013 12915 ft 364 kts 66°
2026-05-05 03:17 35.95333 -87.11151 12597 ft 363 kts 66°
2026-05-05 03:17 35.96331 -87.08288 12270 ft 362 kts 66°
2026-05-05 03:18 35.97325 -87.05435 11959 ft 362 kts 66°
2026-05-05 03:18 35.98317 -87.02586 11642 ft 361 kts 66°
2026-05-05 03:18 35.99301 -86.99757 11323 ft 356 kts 66°
2026-05-05 03:18 36.00271 -86.96965 11015 ft 352 kts 66°
2026-05-05 03:19 36.02175 -86.91476 10395 ft 343 kts 67°
2026-05-05 03:19 36.03108 -86.88783 10100 ft 340 kts 67°
2026-05-05 03:19 36.04030 -86.86118 9928 ft 332 kts 67°
2026-05-05 03:20 36.05001 -86.83605 9899 ft 318 kts 54°
2026-05-05 03:20 36.06535 -86.81747 9893 ft 303 kts 31°
2026-05-05 03:20 36.08391 -86.80681 9800 ft 289 kts 14°
2026-05-05 03:20 36.10291 -86.79954 9591 ft 284 kts 13°
2026-05-05 03:21 36.12174 -86.79247 9338 ft 281 kts 14°
2026-05-05 03:21 36.14013 -86.78543 9241 ft 273 kts 14°
2026-05-05 03:21 36.15800 -86.77852 9074 ft 264 kts 13°
2026-05-05 03:21 36.17553 -86.77259 8747 ft 259 kts 11°
2026-05-05 03:22 36.19303 -86.76722 8333 ft 259 kts 10°
2026-05-05 03:22 36.21053 -86.76198 7961 ft 259 kts
2026-05-05 03:22 36.22807 -86.75690 7572 ft 259 kts
2026-05-05 03:22 36.24558 -86.75174 7207 ft 259 kts 10°
2026-05-05 03:23 36.26302 -86.74636 6841 ft 258 kts 11°
2026-05-05 03:23 36.28042 -86.74084 6483 ft 258 kts 11°
2026-05-05 03:23 36.29781 -86.73518 6105 ft 258 kts 11°
2026-05-05 03:23 36.31515 -86.72961 5746 ft 256 kts 11°
2026-05-05 03:24 36.33234 -86.72413 5384 ft 254 kts 12°
2026-05-05 03:24 36.34899 -86.71697 5101 ft 254 kts 32°
2026-05-05 03:24 36.36021 -86.70060 4874 ft 251 kts 74°
2026-05-05 03:24 36.36147 -86.67984 4657 ft 238 kts 109°
2026-05-05 03:25 36.35579 -86.66132 4434 ft 230 kts 130°
2026-05-05 03:25 36.34563 -86.64676 4195 ft 220 kts 148°
2026-05-05 03:25 36.33369 -86.63516 4054 ft 220 kts 150°
2026-05-05 03:25 36.32138 -86.62374 4033 ft 220 kts 151°
2026-05-05 03:26 36.30848 -86.61587 3980 ft 195 kts 181°
2026-05-05 03:26 36.29588 -86.61834 3813 ft 179 kts 198°
2026-05-05 03:26 36.28382 -86.62121 3586 ft 173 kts 197°
2026-05-05 03:26 36.27256 -86.62551 3356 ft 166 kts 202°
2026-05-05 03:27 36.26176 -86.62991 3131 ft 159 kts 202°
2026-05-05 03:27 36.25144 -86.63400 2924 ft 154 kts 201°
2026-05-05 03:27 36.24137 -86.63796 2747 ft 150 kts 202°
2026-05-05 03:27 36.23133 -86.64190 2546 ft 151 kts 201°
2026-05-05 03:28 36.22136 -86.64581 2334 ft 149 kts 201°
2026-05-05 03:28 36.21159 -86.64963 2126 ft 144 kts 199°
2026-05-05 03:28 36.20218 -86.65331 1952 ft 141 kts 202°
2026-05-05 03:28 36.19318 -86.65685 1786 ft 127 kts 200°
2026-05-05 03:29 36.18490 -86.66009 1603 ft 126 kts 201°
2026-05-05 03:29 36.17627 -86.66348 1428 ft 135 kts 200°
2026-05-05 03:29 36.16706 -86.66716 1236 ft 140 kts 199°
2026-05-05 03:29 36.15755 -86.67086 1053 ft 146 kts 198°
2026-05-05 03:30 36.14799 -86.67461 891 ft 143 kts 198°
2026-05-05 03:30 36.13883 -86.67823 641 ft 136 kts 198°
2026-05-05 03:30 36.13036 -86.68153 575 ft 110 kts 197°
2026-05-05 03:30 36.12464 -86.68376 569 ft 54 kts 198°
2026-05-05 03:31 36.12222 -86.68471 575 ft 17 kts 197°
2026-05-05 03:31 36.12160 -86.68462 570 ft 7 kts 116°
2026-05-05 03:31 36.12146 -86.68409 575 ft 6 kts 108°
2026-05-05 03:31 36.12135 -86.68364 574 ft 4 kts 108°
2026-05-05 03:32 36.12139 -86.68307 577 ft 11 kts 55°
2026-05-05 03:32 36.12217 -86.68265 577 ft 13 kts 14°
2026-05-05 03:32 36.12309 -86.68234 572 ft 14 kts 17°
2026-05-05 03:32 36.12397 -86.68201 572 ft 13 kts 17°
2026-05-05 03:33 36.12475 -86.68172 573 ft 11 kts 17°
2026-05-05 03:33 36.12543 -86.68146 573 ft 10 kts 17°
2026-05-05 03:33 36.12609 -86.68123 576 ft 9 kts 14°
2026-05-05 03:33 36.12668 -86.68106 573 ft 8 kts 14°
2026-05-05 03:34 36.12713 -86.68090 579 ft 5 kts 17°
2026-05-05 03:34 36.12740 -86.68080 581 ft 3 kts 17°
2026-05-05 03:34 36.12749 -86.68076 575 ft 0 kts 17°